Regional Weather Roundup
Issued by NWS

Home | Current Version | Previous Version | Text Only | Print | Product List | Glossary Off
Versions: 1 2 3 4 5 6 7 8 9 10 11 12 13 14 15 16 17 18 19 20 21 22 23 24 25 26 27 28 29 30 31 32 33 34 35 36 37 38 39 40 41 42 43 44 45 46 47 48 49 50

431
ASUS45 KSLC 070010
RWRUT

UTAH REGIONAL WEATHER ROUNDUP
NATIONAL WEATHER SERVICE SALT LAKE CITY UT
500 PM MST SAT FEB 06 2016

UTZ001>011-023>025-070100-

NORTHERN UTAH

CITY           SKY/WX    TMP DP  RH WIND       PRES   REMARKS
BRIGHAM CITY   MOCLDY    27  21  76 N5        30.47S WCI  22
HILL AFB       CLEAR     34  20  56 N2        30.44S
LOGAN          PTCLDY    29  22  75 N5        30.44F WCI  24
OGDEN          MOCLDY    33  25  72 NW5       30.44F WCI  29
PROVO AIRPORT  NOT AVBL
SALT LAKE CITY CLOUDY    34  26  72 N7        30.45F WCI  28
VERNAL         CLOUDY    19  10  68 CALM      30.43F
WENDOVER       PTCLDY    36  25  64 CALM      30.45F
HEBER CITY     CLOUDY    23  14  68 CALM      30.41F
WEST JORDAN    CLEAR     34  21  60 CALM      30.44F

$$

UTZ012>022-026-027-070100-

SOUTHERN/CENTRAL UTAH

CITY           SKY/WX    TMP DP  RH WIND       PRES   REMARKS
BLANDING       CLEAR     34  20  57 S3        30.47F
BRYCE CANYON   CLEAR     28  14  55 CALM      30.41S
CEDAR CITY     SUNNY     33  22  63 S3        30.37F
DELTA          MOCLDY    20  18  92 SW3       30.46F
HANKSVILLE     CLOUDY    23  18  80 CALM      30.55R
MILFORD        CLEAR     17  12  80 E5        30.44R WCI  10
MOAB/CYNLANDS  CLEAR     19  13  77 N10       30.50S WCI   7
PRICE          PTCLDY    26  14  60 CALM      30.43S
ST GEORGE      CLOUDY    55  21  26 CALM      30.38F

$$

REGIONAL REPORTS     COLORADO/ARIZONA

CITY           SKY/WX    TMP DP  RH WIND       PRES   REMARKS
CRAIG, CO      CLOUDY    17  10  74 CALM      30.39R
GRAND JUNCTION CLOUDY    20  14  77 N5        30.49R WCI  13
RIFLE          CLOUDY    25  11  55 CALM      30.44F
MONTROSE       CLOUDY    28  14  55 N5        30.44F WCI  23
CORTEZ         CLEAR     36  21  54 W13       30.39F WCI  27
PAGE, AZ       PTCLDY    40  23  50 NE8       30.43F WCI  34
GRAND CANYON   SUNNY     44  18  35 NE10      30.39F
KINGMAN        SUNNY     58  18  21 NE10      30.30F
FLAGSTAFF      SUNNY     40  16  37 E7        30.39R

$$

REGIONAL REPORTS    NEVADA/IDAHO/WYOMING

CITY           SKY/WX    TMP DP  RH WIND       PRES   REMARKS
LAS VEGAS, NV  MOSUNNY   61  22  22 CALM      30.29F
ELY            SUNNY     32  22  66 NE3       30.41S
ELKO           SUNNY     27  16  63 CALM      30.46R
POCATELLO, ID  CLOUDY    38  24  57 S16       30.37R WCI  29
BURLEY         CLEAR     42  29  59 SW8       30.37S
EVANSTON, WY   CLOUDY    26  15  63 SW10      30.36S WCI  16
ROCK SPRINGS   CLOUDY    31  18  58 W35G44    30.26S WCI  15

$$




USA.gov is the U.S. government's official web portal to all federal, state and local government web resources and services.